Погода в Кердеме

Россия / Республика Саха (Якутия)     61°25′49″N   129°11′48″E
темп.,
°C
ветер,
м/с
пор.,
м/с
влажн.,
%
обл.,
%
осадки,
мм/ч
давл.,
гПа
погр.,
м
27 февраля, сб
сб2700:00−32св229985 0.0 103121
03:00−31св229891 0.0 103024
06:00−31всв239793 0.0 102950
09:00−30всв249694 0.0 1028136
12:00−24всв349489 0.0 1026310
15:00−21всв469395 0.0 1022475
18:00−23всв3795100 0.0 1021200
21:00−24св3696100 0.0 1019210
28 февраля, вс
вс2800:00−25ссв3596100 0.0 1018230
03:00−26ссз2396100 0.0 1016158
06:00−27сз2295100 0.0 101762
09:00−26сз3791100 0.0 1018420
12:00−23зсз4790100 0.1 1021721
15:00−24з5895100 0.4 1022730
18:00−25з4896100 0.4 1024696
21:00−26з3797100 0.7 1025607
1 марта, пн
пн100:00−26з3896100 0.2 1026605
03:00−27з3895100 0.3 1026564
06:00−27з3895100 0.1 1026534
09:00−27з4893100 0.2 1027731
12:00−25зсз4687100 0.1 1027959
15:00−25зсз4685100 0.2 10261003
18:00−26з3693100 0.1 1027272
21:00−27з3694100 0.1 1027219
2 марта, вт
вт200:00−29з2396100 0.0 102759
03:00−31з2296100 0.0 102727
06:00−32зюз2297100 0.0 102821
09:00−32зюз239698 0.0 102791
12:00−27з238695 0.0 1026516
15:00−25з138197 0.0 1026742
18:00−30з0195100 0.0 102619
21:00−32сз1198100 0.0 102619
3 марта, ср
ср300:00−33з119897 0.0 102619
03:00−33зсз119799 0.0 102519
06:00−34з1197100 0.0 102519
09:00−32з1195100 0.0 102440
12:00−28сз1188100 0.0 1022343
15:00−26сз1285100 0.0 1020562
18:00−28ссз1296100 0.1 102034
21:00−30сз2495100 0.1 1020122